sat.trackr.live / text

‹ back to catalog

ICEYE-X38

NORAD 59100 · 2024-043C

PAYLOAD ACTIVE UNKNOWN

§ Identity

Operator
Country
FIN
Launch date
2024-03-04
Launch site
AFWTR
Launch vehicle
Mass (kg)
RCS (m²)

External: N2YO · Heavens-Above · Gunter

§ Orbital elements

Epoch: 2026-05-25T03:57:00.597600Z

Period
95.20 min
Inclination
97.8371°
Eccentricity
0.0003521
Mean motion
15.12606581 rev/d
Perigee alt
525.8 km
Apogee alt
530.7 km
Semi-major
6,906.4 km
B*
2.4282e-4
RAAN
288.2867°
Arg perigee
141.5841°
Mean anomaly
218.5640°
Rev number
10,819

§ Raw data

ICEYE-X381 59100U 24043C   26145.16459025  .00004171  00000+0  24282-3 0  99912 59100  97.8371 288.2867 0003521 141.5841 218.5640 15.12606581108198

JSON: /api/v1/satellites/59100 · /tle

For live sub-satellite position, see the globe view (requires WebGL).

§ Visibility from observer

Set your observer location to see the next 7 days of passes ≥ 10°. The values pass through the URL so the page stays shareable.

No JS? Fill the form by hand. The geolocation button needs JavaScript.

§ Radio — SatNOGS DB

ModeDescriptionDownlinkUplink
BPSK S-band telemetry 2.270 GHz

1 transmitter · refreshed weekly from db.satnogs.org